This demonstration page uses our WeatherBlox Daily Observations layout. Learn more.

Left ArrowRight Arrow

31.84235, -102.49876

Hourly Observations for March 1, 2017

Temp ( °F °C ) Dew Point ( °F °C ) Humidity (%) Winds ( mph kmh ) Pressure ( in mb ) Visibility ( mi km ) Precip ( " mm )
12:53 am 00:53 Clear 57 13.9 18 -7.8 22 22 NW 10 17 29.92 1013 10 16 0.00 0.00
1:53 am 01:53 Clear 54 12.2 20 -6.7 26 26 NW 9 15 29.95 1014 10 16 0.00 0.00
2:53 am 02:53 Clear 54 12.2 23 -5 30 30 NW 9 15 29.97 1015 10 16 0.00 0.00
3:53 am 03:53 Clear 53 11.7 24 -4.4 32 32 NW 9 15 29.98 1015 10 16 0.00 0.00
4:53 am 04:53 Clear 49 9.4 24 -4.4 38 38 N 7 11 30.01 1016 10 16 0.00 0.00
5:53 am 05:53 Clear 47 8.3 25 -3.9 42 42 N 6 9 30.06 1018 10 16 0.00 0.00
6:53 am 06:53 Clear 45 7.2 25 -3.9 46 46 N 7 11 30.10 1019 10 16 0.00 0.00
7:43 am 07:43 Mostly Sunny 46 7.8 25 -3.9 44 44 NNE 13 20 30.21 1023 10 16 0.00 0.00
7:53 am 07:53 Mostly Sunny 46 7.8 25 -3.9 44 44 NNE 10 17 30.14 1021 10 16 0.00 0.00
8:53 am 08:53 Sunny 47 8.3 25 -3.9 42 42 ENE 21 33 30.19 1023 10 16 0.00 0.00
9:53 am 09:53 Sunny 49 9.4 22 -5.6 35 35 ENE 18 30 30.23 1024 10 16 0.00 0.00
10:53 am 10:53 Sunny 52 11.1 21 -6.1 30 30 ENE 17 28 30.24 1024 10 16 0.00 0.00
11:53 am 11:53 Sunny 55 12.8 17 -8.3 22 22 E 15 24 30.25 1024 10 16 0.00 0.00
12:53 pm 12:53 Mostly Sunny 57 13.9 17 -8.3 21 21 E 13 20 30.23 1024 10 16 0.00 0.00
1:53 pm 13:53 Sunny 59 15 17 -8.3 19 19 ENE 13 20 30.20 1023 10 16 0.00 0.00
2:53 pm 14:53 Sunny 61 16.1 17 -8.3 18 18 NNW 6 9 30.18 1022 10 16 0.00 0.00
3:53 pm 15:53 Sunny 59 15 16 -8.9 18 18 VRB 6 9 30.18 1022 10 16 0.00 0.00
4:53 pm 16:53 Sunny 60 15.6 16 -8.9 18 18 ENE 6 9 30.18 1022 10 16 0.00 0.00
5:14 pm 17:14 Mostly Sunny 60 15.6 16 -8.9 18 18 E 10 17 30.15 1021 10 16 0.00 0.00
5:53 pm 17:53 Sunny 59 15 16 -8.9 18 18 E 7 11 30.19 1022 10 16 0.00 0.00
6:53 pm 18:53 Clear 53 11.7 17 -8.3 24 24 E 8 13 30.22 1023 10 16 0.00 0.00
7:05 pm 19:05 Mostly Clear 51 10.6 17 -8.3 26 26 ENE 9 15 30.24 1024 10 16 0.00 0.00
7:53 pm 19:53 Clear 50 10 17 -8.3 27 27 E 9 15 30.22 1024 10 16 0.00 0.00
8:53 pm 20:53 Clear 48 8.9 17 -8.3 29 29 E 12 19 30.22 1024 10 16 0.00 0.00
9:53 pm 21:53 Clear 48 8.9 15 -9.4 27 27 ESE 9 15 30.24 1024 10 16 0.00 0.00
10:53 pm 22:53 Clear 47 8.3 15 -9.4 28 28 ESE 10 17 30.25 1024 10 16 0.00 0.00
11:53 pm 23:53 Clear 45 7.2 15 -9.4 30 30 ESE 10 17 30.26 1025 10 16 0.00 0.00

Powered by AerisWeather